When you browse on this site, cookies collect data to enhance your experience and personalize the content and advertising you see.
Visit our Privacy Policy to learn more. By continuing to use the site, you agree to this use of cookies and data.
  • în România
  • Lista ţărilor
  • Pe 7 zile
  • Temperatura apei
  • Hartă satelitară
  • Meteo pe hartă
  • Widget-uri
  • user-avatar
    Intrare

    Meteo pe oră la Sydney

    Astăzi, 16 Iunie, Duminică

    Timp Temperatura Precipitaţii Vânt Presiune Umiditate
    00:00 +12°C° 0.4 mm 3 m/s 765 mmHg 75%
    01:00 +12°C° 0.4 mm 3 m/s 765 mmHg 74%
    02:00 +12°C° 0.3 mm 3 m/s 764 mmHg 74%
    03:00 +12°C° 0.3 mm 3 m/s 764 mmHg 75%
    04:00 +12°C° 0.3 mm 3 m/s 764 mmHg 75%
    05:00 +12°C° 0.6 mm 3 m/s 764 mmHg 77%
    06:00 +12°C° 0.6 mm 3 m/s 764 mmHg 80%
    07:00 +12°C° 0.6 mm 3 m/s 764 mmHg 83%
    08:00 +13°C° 0.7 mm 3 m/s 764 mmHg 83%
    09:00 +13°C° 0.7 mm 3 m/s 765 mmHg 83%
    10:00 +14°C° 0.7 mm 2 m/s 765 mmHg 84%
    11:00 +14°C° 0.7 mm 3 m/s 764 mmHg 83%
    12:00 +14°C° 0.7 mm 3 m/s 763 mmHg 83%
    13:00 +14°C° 0.7 mm 3 m/s 763 mmHg 83%
    14:00 +14°C° 0.3 mm 3 m/s 763 mmHg 82%
    15:00 +15°C° 0.3 mm 4 m/s 763 mmHg 81%
    16:00 +15°C° 0.3 mm 4 m/s 763 mmHg 81%
    17:00 +14°C° 0.6 mm 3 m/s 763 mmHg 83%
    18:00 +13°C° 0.6 mm 3 m/s 763 mmHg 86%
    19:00 +13°C° 0.6 mm 3 m/s 763 mmHg 89%
    20:00 +12°C° 0.9 mm 3 m/s 763 mmHg 89%
    21:00 +12°C° 0.9 mm 3 m/s 763 mmHg 90%
    22:00 +12°C° 0.9 mm 3 m/s 763 mmHg 91%
    23:00 +12°C° 0.4 mm 3 m/s 763 mmHg 91%

    Mâine, 17 Iunie, Luni

    Timp Temperatura Precipitaţii Vânt Presiune Umiditate
    00:00 +12°C° 0.4 mm 3 m/s 763 mmHg 90%
    01:00 +11°C° 0.4 mm 3 m/s 763 mmHg 90%
    02:00 +11°C° 0.4 mm 4 m/s 762 mmHg 88%
    03:00 +11°C° 0.4 mm 4 m/s 762 mmHg 87%
    04:00 +10°C° 0.4 mm 5 m/s 762 mmHg 86%
    05:00 +12°C° 0.4 mm 5 m/s 762 mmHg 87%
    06:00 +12°C° 0.4 mm 5 m/s 763 mmHg 88%
    07:00 +13°C° 0.4 mm 5 m/s 763 mmHg 89%
    08:00 +14°C° 0.5 mm 5 m/s 763 mmHg 85%
    09:00 +15°C° 0.5 mm 5 m/s 763 mmHg 81%
    10:00 +16°C° 0.5 mm 5 m/s 763 mmHg 76%
    11:00 +16°C° 0.8 mm 5 m/s 763 mmHg 75%
    12:00 +16°C° 0.8 mm 5 m/s 763 mmHg 74%
    13:00 +17°C° 0.8 mm 5 m/s 763 mmHg 72%
    14:00 +17°C° 0.7 mm 5 m/s 763 mmHg 74%
    15:00 +16°C° 0.7 mm 5 m/s 763 mmHg 75%
    16:00 +16°C° 0.7 mm 5 m/s 763 mmHg 77%
    17:00 +15°C° 0.5 mm 5 m/s 763 mmHg 80%
    18:00 +14°C° 0.5 mm 4 m/s 764 mmHg 84%
    19:00 +14°C° 0.5 mm 4 m/s 764 mmHg 88%
    20:00 +13°C° 0.4 mm 4 m/s 764 mmHg 88%
    21:00 +13°C° 0.4 mm 3 m/s 764 mmHg 89%
    22:00 +13°C° 0.4 mm 3 m/s 764 mmHg 89%
    23:00 +13°C° 0.2 mm 3 m/s 764 mmHg 89%

    Poimâine, 18 Iunie, Marţi

    Timp Temperatura Precipitaţii Vânt Presiune Umiditate
    00:00 +13°C° 0.2 mm 3 m/s 764 mmHg 89%
    01:00 +13°C° 0.2 mm 3 m/s 764 mmHg 88%
    02:00 +14°C° 0 mm 2 m/s 763 mmHg 89%
    03:00 +13°C° 0 mm 2 m/s 763 mmHg 89%
    04:00 +13°C° 0 mm 2 m/s 763 mmHg 90%
    05:00 +12°C° 0 mm 2 m/s 763 mmHg 91%
    06:00 +12°C° 0 mm 1 m/s 764 mmHg 91%
    07:00 +12°C° 0 mm 1 m/s 764 mmHg 92%
    08:00 +13°C° 0 mm 1 m/s 764 mmHg 87%
    09:00 +14°C° 0 mm 2 m/s 764 mmHg 82%
    10:00 +16°C° 0 mm 2 m/s 763 mmHg 77%
    11:00 +17°C° 0 mm 2 m/s 763 mmHg 71%
    12:00 +18°C° 0 mm 2 m/s 762 mmHg 65%
    13:00 +19°C° 0 mm 2 m/s 762 mmHg 59%
    14:00 +19°C° 0 mm 2 m/s 762 mmHg 60%
    15:00 +19°C° 0 mm 1 m/s 761 mmHg 60%
    16:00 +19°C° 0 mm 1 m/s 761 mmHg 61%
    17:00 +18°C° 0.2 mm 1 m/s 762 mmHg 66%
    18:00 +16°C° 0.2 mm 2 m/s 762 mmHg 71%
    19:00 +14°C° 0.2 mm 3 m/s 762 mmHg 76%
    20:00 +13°C° 0.1 mm 4 m/s 762 mmHg 75%
    21:00 +13°C° 0.1 mm 4 m/s 762 mmHg 73%
    22:00 +12°C° 0.1 mm 5 m/s 763 mmHg 71%
    23:00 +10°C° 0 mm 5 m/s 763 mmHg 73%

    19 Iunie, Miercuri

    Timp Temperatura Precipitaţii Vânt Presiune Umiditate
    00:00 +10°C° 0 mm 5 m/s 763 mmHg 76%
    01:00 +9°C° 0 mm 5 m/s 763 mmHg 78%
    02:00 +8°C° 0 mm 5 m/s 763 mmHg 79%
    03:00 +8°C° 0 mm 5 m/s 763 mmHg 79%
    04:00 +8°C° 0 mm 5 m/s 763 mmHg 80%
    05:00 +7°C° 0 mm 5 m/s 763 mmHg 78%
    06:00 +7°C° 0 mm 4 m/s 764 mmHg 77%
    07:00 +7°C° 0 mm 4 m/s 764 mmHg 76%
    08:00 +8°C° 0 mm 4 m/s 765 mmHg 68%
    09:00 +11°C° 0 mm 4 m/s 765 mmHg 61%
    10:00 +12°C° 0 mm 4 m/s 765 mmHg 53%
    11:00 +13°C° 0 mm 5 m/s 765 mmHg 50%
    12:00 +14°C° 0 mm 5 m/s 764 mmHg 47%
    13:00 +15°C° 0 mm 5 m/s 764 mmHg 44%
    14:00 +15°C° 0 mm 5 m/s 764 mmHg 45%
    15:00 +14°C° 0 mm 5 m/s 764 mmHg 46%
    16:00 +14°C° 0 mm 4 m/s 764 mmHg 47%
    17:00 +13°C° 0 mm 4 m/s 765 mmHg 51%
    18:00 +12°C° 0 mm 4 m/s 765 mmHg 55%
    19:00 +11°C° 0 mm 4 m/s 766 mmHg 59%
    20:00 +10°C° 0 mm 3 m/s 766 mmHg 61%
    21:00 +9°C° 0 mm 3 m/s 766 mmHg 64%
    22:00 +9°C° 0 mm 3 m/s 767 mmHg 67%
    23:00 +8°C° 0 mm 3 m/s 767 mmHg 66%

    20 Iunie, Joi

    Timp Temperatura Precipitaţii Vânt Presiune Umiditate
    00:00 +8°C° 0 mm 3 m/s 766 mmHg 64%
    01:00 +7°C° 0 mm 3 m/s 766 mmHg 63%
    02:00 +7°C° 0.1 mm 3 m/s 766 mmHg 64%
    03:00 +7°C° 0.1 mm 3 m/s 766 mmHg 65%
    04:00 +5°C° 0.1 mm 4 m/s 766 mmHg 66%
    05:00 +5°C° 0.1 mm 4 m/s 766 mmHg 67%
    06:00 +5°C° 0.1 mm 4 m/s 767 mmHg 68%
    07:00 +5°C° 0.1 mm 4 m/s 767 mmHg 69%
    08:00 +7°C° 0.3 mm 4 m/s 767 mmHg 64%
    09:00 +9°C° 0.3 mm 3 m/s 767 mmHg 60%
    10:00 +11°C° 0.3 mm 3 m/s 767 mmHg 55%
    11:00 +12°C° 0.2 mm 3 m/s 766 mmHg 56%
    12:00 +13°C° 0.2 mm 4 m/s 766 mmHg 58%
    13:00 +14°C° 0.2 mm 4 m/s 765 mmHg 59%
    14:00 +14°C° 0.3 mm 3 m/s 765 mmHg 63%
    15:00 +13°C° 0.3 mm 3 m/s 764 mmHg 67%
    16:00 +13°C° 0.3 mm 3 m/s 764 mmHg 71%
    17:00 +12°C° 0.4 mm 3 m/s 764 mmHg 76%
    18:00 +12°C° 0.4 mm 2 m/s 765 mmHg 80%
    19:00 +10°C° 0.4 mm 2 m/s 765 mmHg 85%
    20:00 +10°C° 1 mm 3 m/s 765 mmHg 86%
    21:00 +10°C° 1 mm 3 m/s 764 mmHg 88%
    22:00 +9°C° 1 mm 3 m/s 764 mmHg 89%
    23:00 +9°C° 0.7 mm 3 m/s 764 mmHg 90%

    21 Iunie, Vineri

    Timp Temperatura Precipitaţii Vânt Presiune Umiditate
    00:00 +9°C° 0.7 mm 3 m/s 764 mmHg 91%
    01:00 +8°C° 0.7 mm 3 m/s 763 mmHg 92%
    02:00 +7°C° 0.9 mm 4 m/s 763 mmHg 90%
    03:00 +8°C° 0.9 mm 4 m/s 763 mmHg 88%
    04:00 +8°C° 0.9 mm 5 m/s 763 mmHg 85%
    05:00 +8°C° 1.9 mm 5 m/s 763 mmHg 86%
    06:00 +8°C° 1.9 mm 5 m/s 763 mmHg 86%
    07:00 +8°C° 1.9 mm 6 m/s 763 mmHg 86%
    08:00 +8°C° 2.6 mm 7 m/s 763 mmHg 85%
    09:00 +7°C° 2.6 mm 8 m/s 763 mmHg 83%
    10:00 +7°C° 2.6 mm 9 m/s 764 mmHg 82%
    11:00 +7°C° 4.4 mm 9 m/s 763 mmHg 81%
    12:00 +7°C° 4.4 mm 10 m/s 763 mmHg 80%
    13:00 +7°C° 4.4 mm 10 m/s 763 mmHg 78%
    14:00 +7°C° 2.3 mm 10 m/s 763 mmHg 76%
    15:00 +8°C° 2.3 mm 10 m/s 763 mmHg 73%
    16:00 +8°C° 2.3 mm 10 m/s 763 mmHg 71%
    17:00 +8°C° 1.2 mm 9 m/s 764 mmHg 75%
    18:00 +9°C° 1.2 mm 8 m/s 765 mmHg 79%
    19:00 +9°C° 1.2 mm 8 m/s 765 mmHg 83%
    20:00 +9°C° 0.9 mm 8 m/s 766 mmHg 83%
    21:00 +9°C° 0.9 mm 8 m/s 766 mmHg 84%
    22:00 +9°C° 0.9 mm 7 m/s 766 mmHg 84%
    23:00 +9°C° 0.6 mm 7 m/s 767 mmHg 84%
    Arată mai mult